USY482 LEMG-EGKK

Flight info

Callsign USY482
Flight time N/A
Altitude 38000
Route BLN N865 VTB N867 NENEM DCT YURZI DCT ERIGA DCT ARTIV DCT REVTU/N0451F340 UP88 VASUX
Aircraft A346/H-SDE2E3FGHIJ3J4J5M1RWXY/LB1D1

Departure

Time N/A
Airport Málaga-Costa del Sol Airport (LEMG)

Arrival

Time 2026-05-07 11:36
Airport London Gatwick Airport (EGKK)
Time Latitude Longitude Altitude Speed Heading
2026-05-07 10:46 46.79481 -2.37391 38034 ft 480 kts
2026-05-07 10:46 46.82804 -2.36837 38032 ft 480 kts
2026-05-07 10:46 46.89435 -2.35523 38031 ft 481 kts
2026-05-07 10:47 46.96003 -2.33962 38032 ft 481 kts
2026-05-07 10:47 47.02612 -2.32372 38027 ft 480 kts
2026-05-07 10:48 47.09212 -2.30788 38027 ft 481 kts
2026-05-07 10:48 47.15818 -2.29203 38038 ft 481 kts
2026-05-07 10:49 47.22382 -2.27625 38027 ft 481 kts
2026-05-07 10:49 47.28987 -2.26034 38029 ft 481 kts
2026-05-07 10:50 47.35588 -2.24440 38028 ft 481 kts
2026-05-07 10:50 47.42191 -2.22842 38029 ft 480 kts
2026-05-07 10:51 47.48787 -2.21240 38025 ft 480 kts
2026-05-07 10:51 47.55386 -2.19634 38023 ft 480 kts
2026-05-07 10:52 47.61989 -2.18023 38023 ft 480 kts
2026-05-07 10:52 47.68544 -2.16419 38020 ft 480 kts
2026-05-07 10:53 47.75141 -2.14802 38019 ft 480 kts
2026-05-07 10:53 47.81739 -2.13180 38027 ft 480 kts
2026-05-07 10:54 47.88332 -2.11555 38025 ft 480 kts
2026-05-07 10:54 47.94930 -2.09922 38025 ft 480 kts
2026-05-07 10:55 48.01512 -2.08292 38028 ft 480 kts
2026-05-07 10:55 48.08055 -2.06667 38029 ft 479 kts
2026-05-07 10:56 48.14641 -2.05027 38024 ft 479 kts
2026-05-07 10:56 48.21228 -2.03382 38044 ft 479 kts
2026-05-07 10:57 48.27812 -2.01734 38035 ft 479 kts
2026-05-07 10:57 48.34395 -2.00080 38029 ft 479 kts
2026-05-07 10:58 48.40977 -1.98423 38037 ft 479 kts
2026-05-07 10:58 48.47553 -1.96764 38042 ft 479 kts
2026-05-07 10:59 48.54094 -1.95108 38056 ft 479 kts
2026-05-07 10:59 48.60668 -1.93439 38057 ft 479 kts
2026-05-07 11:00 48.67246 -1.91766 38055 ft 479 kts
2026-05-07 11:00 48.73822 -1.90086 38054 ft 479 kts
2026-05-07 11:01 48.80355 -1.88412 38054 ft 478 kts
2026-05-07 11:01 48.86928 -1.86755 38051 ft 478 kts
2026-05-07 11:02 48.93538 -1.85443 38055 ft 478 kts
2026-05-07 11:02 49.00148 -1.84192 38055 ft 478 kts
2026-05-07 11:03 49.06702 -1.82936 38065 ft 478 kts
2026-05-07 11:03 49.13301 -1.81661 38058 ft 477 kts
2026-05-07 11:04 49.19890 -1.80379 38052 ft 477 kts
2026-05-07 11:04 49.26476 -1.79095 38034 ft 477 kts
2026-05-07 11:05 49.33019 -1.77817 37910 ft 477 kts
2026-05-07 11:05 49.36312 -1.77170 37461 ft 475 kts
2026-05-07 11:05 49.39592 -1.76525 36936 ft 474 kts
2026-05-07 11:06 49.42862 -1.75882 36369 ft 474 kts
2026-05-07 11:06 49.46138 -1.75237 35752 ft 475 kts
2026-05-07 11:06 49.49417 -1.74590 35137 ft 475 kts
2026-05-07 11:06 49.52705 -1.73941 34535 ft 476 kts
2026-05-07 11:07 49.55989 -1.73206 33895 ft 477 kts
2026-05-07 11:07 49.59247 -1.72205 33190 ft 478 kts 11°
2026-05-07 11:07 49.62473 -1.70913 32533 ft 478 kts 14°
2026-05-07 11:07 49.65647 -1.69345 31898 ft 478 kts 17°
2026-05-07 11:08 49.68784 -1.67639 31275 ft 478 kts 18°
2026-05-07 11:08 49.71868 -1.65920 30647 ft 477 kts 18°
2026-05-07 11:08 49.75004 -1.64163 29972 ft 478 kts 18°
2026-05-07 11:08 49.78141 -1.62408 29219 ft 478 kts 18°
2026-05-07 11:09 49.81268 -1.60666 28518 ft 477 kts 18°
2026-05-07 11:09 49.84379 -1.58935 28009 ft 471 kts 18°
2026-05-07 11:09 49.87446 -1.57226 27621 ft 466 kts 18°
2026-05-07 11:09 49.90492 -1.55526 27211 ft 462 kts 18°
2026-05-07 11:10 49.93532 -1.53828 26781 ft 458 kts 18°
2026-05-07 11:10 49.96518 -1.52159 26371 ft 455 kts 18°
2026-05-07 11:10 49.99500 -1.50497 25923 ft 452 kts 18°
2026-05-07 11:10 50.02475 -1.48982 25507 ft 448 kts 16°
2026-05-07 11:11 50.05438 -1.47534 25093 ft 445 kts 16°
2026-05-07 11:11 50.08383 -1.46107 24659 ft 441 kts 16°
2026-05-07 11:11 50.11308 -1.44687 24236 ft 438 kts 16°
2026-05-07 11:11 50.14180 -1.43287 23829 ft 435 kts 16°
2026-05-07 11:12 50.17060 -1.41876 23358 ft 432 kts 16°
2026-05-07 11:12 50.19910 -1.40474 22900 ft 428 kts 16°
2026-05-07 11:12 50.22737 -1.39082 22454 ft 424 kts 16°
2026-05-07 11:12 50.25539 -1.37704 22018 ft 420 kts 16°
2026-05-07 11:13 50.28315 -1.36338 21604 ft 416 kts 16°
2026-05-07 11:13 50.31067 -1.34984 21193 ft 412 kts 16°
2026-05-07 11:13 50.33793 -1.33639 20786 ft 409 kts 16°
2026-05-07 11:13 50.36492 -1.32304 20373 ft 406 kts 16°
2026-05-07 11:14 50.39144 -1.30990 19973 ft 403 kts 16°
2026-05-07 11:14 50.41847 -1.29650 19553 ft 401 kts 16°
2026-05-07 11:14 50.44465 -1.28352 19146 ft 399 kts 16°
2026-05-07 11:14 50.47102 -1.27031 18736 ft 397 kts 18°
2026-05-07 11:15 50.49639 -1.25345 18325 ft 395 kts 26°
2026-05-07 11:15 50.51995 -1.23116 17866 ft 393 kts 35°
2026-05-07 11:15 50.54144 -1.20478 17447 ft 390 kts 39°
2026-05-07 11:15 50.56215 -1.17731 17037 ft 387 kts 40°
2026-05-07 11:16 50.58263 -1.14985 16624 ft 385 kts 40°
2026-05-07 11:16 50.60301 -1.12268 16229 ft 382 kts 40°
2026-05-07 11:16 50.62330 -1.09579 15820 ft 380 kts 40°
2026-05-07 11:16 50.64334 -1.06862 15425 ft 378 kts 43°
2026-05-07 11:17 50.66190 -1.04023 15026 ft 376 kts 46°
2026-05-07 11:17 50.67955 -1.00917 14618 ft 373 kts 50°
2026-05-07 11:17 50.69588 -0.97806 14205 ft 372 kts 51°
2026-05-07 11:17 50.71216 -0.94653 13818 ft 369 kts 51°
2026-05-07 11:18 50.72816 -0.91549 13624 ft 358 kts 51°
2026-05-07 11:18 50.74363 -0.88552 13505 ft 345 kts 51°
2026-05-07 11:18 50.75856 -0.85661 13396 ft 332 kts 51°
2026-05-07 11:18 50.77294 -0.82877 13296 ft 320 kts 51°
2026-05-07 11:19 50.78674 -0.80198 13211 ft 308 kts 51°
2026-05-07 11:19 50.80001 -0.77613 13108 ft 297 kts 54°
2026-05-07 11:19 50.81026 -0.74838 13078 ft 290 kts 69°
2026-05-07 11:19 50.81601 -0.71763 12921 ft 292 kts 79°
2026-05-07 11:20 50.81983 -0.68595 12540 ft 293 kts 81°
2026-05-07 11:20 50.82330 -0.65421 12213 ft 291 kts 81°
2026-05-07 11:20 50.82678 -0.62271 11899 ft 289 kts 81°
2026-05-07 11:20 50.83031 -0.59143 11595 ft 287 kts 81°
2026-05-07 11:21 50.83384 -0.56033 11286 ft 286 kts 81°
2026-05-07 11:21 50.83617 -0.53988 11101 ft 284 kts 81°
2026-05-07 11:21 50.83971 -0.50917 10802 ft 282 kts 81°
2026-05-07 11:21 50.84322 -0.47859 10502 ft 280 kts 81°
2026-05-07 11:22 50.84669 -0.44826 10214 ft 279 kts 81°
2026-05-07 11:22 50.85014 -0.41810 9914 ft 278 kts 81°
2026-05-07 11:22 50.85358 -0.38806 9594 ft 276 kts 81°
2026-05-07 11:22 50.85695 -0.35818 9301 ft 274 kts 81°
2026-05-07 11:23 50.86028 -0.32898 9045 ft 270 kts 81°
2026-05-07 11:23 50.86360 -0.29987 8794 ft 265 kts 81°
2026-05-07 11:23 50.86681 -0.27138 8567 ft 260 kts 81°
2026-05-07 11:23 50.86997 -0.24338 8332 ft 255 kts 81°
2026-05-07 11:24 50.87307 -0.21598 8133 ft 250 kts 80°
2026-05-07 11:24 50.87610 -0.18908 7930 ft 245 kts 80°
2026-05-07 11:24 50.87905 -0.16271 7717 ft 241 kts 80°
2026-05-07 11:24 50.88196 -0.13671 7533 ft 238 kts 80°
2026-05-07 11:25 50.88485 -0.11089 7339 ft 236 kts 80°
2026-05-07 11:25 50.88826 -0.08538 7116 ft 237 kts 67°
2026-05-07 11:25 50.89812 -0.06500 6827 ft 236 kts 32°
2026-05-07 11:25 50.91332 -0.05648 6556 ft 233 kts 360°
2026-05-07 11:26 50.92888 -0.06189 6272 ft 230 kts 330°
2026-05-07 11:26 50.94261 -0.07489 6025 ft 230 kts 327°
2026-05-07 11:26 50.95675 -0.08891 5778 ft 252 kts 327°
2026-05-07 11:26 50.97070 -0.10678 5442 ft 261 kts 306°
2026-05-07 11:27 50.97827 -0.13276 5168 ft 261 kts 284°
2026-05-07 11:27 50.98211 -0.16094 4889 ft 260 kts 281°
2026-05-07 11:27 50.98559 -0.18909 4597 ft 259 kts 281°
2026-05-07 11:27 50.98937 -0.21707 4302 ft 258 kts 282°
2026-05-07 11:28 50.99343 -0.24486 4013 ft 258 kts 283°
2026-05-07 11:28 50.99758 -0.27218 3729 ft 257 kts 283°
2026-05-07 11:28 51.00183 -0.29961 3455 ft 256 kts 283°
2026-05-07 11:28 51.00615 -0.32742 3170 ft 255 kts 283°
2026-05-07 11:29 51.01047 -0.35483 3003 ft 255 kts 284°
2026-05-07 11:29 51.01493 -0.38219 2999 ft 256 kts 284°
2026-05-07 11:29 51.01944 -0.40966 2993 ft 256 kts 284°
2026-05-07 11:29 51.02387 -0.43674 2993 ft 256 kts 284°
2026-05-07 11:30 51.02833 -0.46411 2991 ft 256 kts 284°
2026-05-07 11:30 51.03279 -0.49156 2989 ft 256 kts 284°
2026-05-07 11:30 51.04000 -0.51725 2945 ft 257 kts 311°
2026-05-07 11:30 51.05510 -0.53183 2980 ft 259 kts 348°
2026-05-07 11:31 51.07275 -0.52942 2984 ft 255 kts 24°
2026-05-07 11:31 51.08704 -0.51428 2992 ft 241 kts 39°
2026-05-07 11:31 51.09955 -0.49767 2984 ft 227 kts 40°
2026-05-07 11:31 51.10929 -0.47901 2951 ft 215 kts 68°
2026-05-07 11:32 51.11554 -0.43346 2994 ft 210 kts 81°
2026-05-07 11:32 51.11818 -0.41052 2926 ft 211 kts 79°
2026-05-07 11:32 51.12119 -0.38752 2578 ft 212 kts 78°
2026-05-07 11:33 51.12424 -0.36520 2253 ft 205 kts 78°
2026-05-07 11:33 51.12720 -0.34362 1973 ft 194 kts 78°
2026-05-07 11:33 51.13001 -0.32297 1721 ft 182 kts 78°
2026-05-07 11:33 51.13257 -0.30416 1468 ft 170 kts 78°
2026-05-07 11:34 51.13498 -0.28641 1240 ft 158 kts 78°
2026-05-07 11:34 51.13726 -0.26977 980 ft 149 kts 78°
2026-05-07 11:34 51.13946 -0.25368 823 ft 148 kts 78°
2026-05-07 11:34 51.14165 -0.23770 606 ft 147 kts 78°
2026-05-07 11:35 51.14381 -0.22179 416 ft 146 kts 78°
2026-05-07 11:35 51.14596 -0.20599 254 ft 145 kts 77°
2026-05-07 11:35 51.14799 -0.19132 221 ft 116 kts 77°
2026-05-07 11:35 51.14935 -0.18160 218 ft 63 kts 78°
2026-05-07 11:36 51.14992 -0.17741 219 ft 23 kts 77°
2026-05-07 11:36 51.15035 -0.17449 219 ft 28 kts 70°
2026-05-07 11:36 51.15121 -0.17232 217 ft 15 kts 24°
2026-05-07 11:36 51.15219 -0.17287 222 ft 13 kts 327°
2026-05-07 11:37 51.15290 -0.17348 221 ft 12 kts 344°
2026-05-07 11:37 51.15389 -0.17383 220 ft 17 kts 348°
2026-05-07 11:37 51.15511 -0.17426 216 ft 15 kts 348°
2026-05-07 11:37 51.15562 -0.17429 214 ft 7 kts 24°
2026-05-07 11:38 51.15592 -0.17361 217 ft 5 kts 63°
2026-05-07 11:38 51.15599 -0.17305 221 ft 4 kts 96°
2026-05-07 11:38 51.15593 -0.17273 218 ft 4 kts 116°
2026-05-07 11:38 51.15571 -0.17230 218 ft 5 kts 133°
2026-05-07 11:39 51.15555 -0.17202 216 ft 1 kts 134°
2026-05-07 11:39 51.15550 -0.17193 222 ft 0 kts 134°
2026-05-07 11:39 51.15545 -0.17185 217 ft 0 kts 134°
2026-05-07 11:39 51.15544 -0.17184 217 ft 0 kts 134°